SM4IVE-5 Weather Reports


Display with metric or nautical units.
time (UTC)temp
F
wind
direction
speed
MPH
gust
MPH
rain 1hr
in
rain 24hr
in
rain mn
in
humidity
%
barometer
mb
20260505214327 35 186 0.0 0.0 0.00 0.00 0.00 74 1011.5
20260505213836 35 186 0.0 1.0 0.00 0.00 0.00 72 1011.6
20260505213324 35 186 0.0 1.0 0.00 0.00 0.00 72 1011.5
20260505212852 35 186 0.0 1.0 0.00 0.00 0.00 74 1011.4
20260505212331 35 186 1.0 2.0 0.00 0.00 0.00 77 1011.3
20260505211831 35 186 1.0 2.0 0.00 0.00 0.00 77 1011.3
20260505211331 35 186 1.0 3.0 0.00 0.00 0.00 76 1011.3
20260505210832 35 186 1.0 3.0 0.00 0.00 0.00 76 1011.2
20260505210332 35 186 2.0 3.0 0.00 0.00 0.00 76 1011.2
20260505205831 36 186 2.0 3.0 0.00 0.00 0.00 75 1011.2
20260505205349 36 186 2.0 3.0 0.00 0.00 0.00 73 1011.2
20260505204857 36 186 2.0 2.0 0.00 0.00 0.00 74 1011.2
20260505204344 36 186 1.0 2.0 0.00 0.00 0.00 74 1011.1
20260505203832 36 186 1.0 2.0 0.00 0.00 0.00 73 1011.1
20260505203325 37 186 1.0 2.0 0.00 0.00 0.00 72 1011.0
20260505202828 37 186 1.0 2.0 0.00 0.00 0.00 71 1010.9
20260505202328 37 186 1.0 2.0 0.00 0.00 0.00 71 1010.9
20260505201827 38 186 1.0 2.0 0.00 0.00 0.00 69 1010.8
20260505201327 38 186 0.0 1.0 0.00 0.00 0.00 67 1010.8
20260505200857 39 186 0.0 1.0 0.00 0.00 0.00 67 1010.8
20260505200343 39 186 0.0 2.0 0.00 0.00 0.00 67 1010.8
20260505195832 39 186 1.0 2.0 0.00 0.00 0.00 63 1010.7
20260505195341 40 186 1.0 2.0 0.00 0.00 0.00 63 1010.6
20260505194827 40 186 1.0 2.0 0.00 0.00 0.00 62 1010.6
20260505194347 41 186 1.0 2.0 0.00 0.00 0.00 60 1010.6
20260505193827 41 186 1.0 2.0 0.00 0.00 0.00 56 1010.5
20260505193328 41 186 1.0 2.0 0.00 0.00 0.00 56 1010.5
20260505192828 41 186 1.0 3.0 0.00 0.00 0.00 56 1010.5
20260505192329 42 186 1.0 3.0 0.00 0.00 0.00 55 1010.4
20260505191829 43 285 1.0 3.0 0.00 0.00 0.00 54 1010.4
20260505191329 44 284 1.0 3.0 0.00 0.00 0.00 52 1010.4
20260505190830 45 284 1.0 2.0 0.00 0.00 0.00 49 1010.4
20260505190330 45 302 1.0 2.0 0.00 0.00 0.00 45 1010.3
20260505185830 46 302 1.0 3.0 0.00 0.00 0.00 44 1010.2
20260505185350 47 302 1.0 4.0 0.00 0.00 0.00 44 1010.2
20260505184837 47 302 1.0 4.0 0.00 0.00 0.00 42 1010.1
20260505184325 47 288 1.0 4.0 0.00 0.00 0.00 42 1010.1
20260505183853 48 280 2.0 5.0 0.00 0.00 0.00 39 1010.0
20260505183400 48 290 2.0 5.0 0.00 0.00 0.00 41 1009.9
20260505182847 48 285 3.0 6.0 0.00 0.00 0.00 39 1009.9
20260505182335 48 306 2.0 6.0 0.00 0.00 0.00 42 1009.9
20260505181841 49 290 2.0 5.0 0.00 0.00 0.00 39 1009.8
20260505181330 49 303 2.0 7.0 0.00 0.00 0.00 39 1009.8
20260505180836 49 294 4.0 8.0 0.00 0.00 0.00 38 1009.7
20260505180324 49 311 5.0 10.0 0.00 0.00 0.00 36 1009.7
20260505175831 50 300 5.0 12.0 0.00 0.00 0.00 36 1009.6
20260505175331 50 300 5.0 12.0 0.00 0.00 0.00 36 1009.6
20260505174850 50 284 5.0 13.0 0.00 0.00 0.00 36 1009.6
20260505174330 50 300 7.0 16.0 0.00 0.00 0.00 35 1009.5
20260505173830 50 321 5.0 12.0 0.00 0.00 0.00 37 1009.5
20260505173331 51 310 6.0 12.0 0.00 0.00 0.00 35 1009.5
20260505172831 51 309 5.0 15.0 0.00 0.00 0.00 35 1009.4
20260505172400 51 302 6.0 15.0 0.00 0.00 0.00 34 1009.4
20260505171828 52 298 7.0 13.0 0.00 0.00 0.00 32 1009.3
20260505171329 52 300 6.0 13.0 0.00 0.00 0.00 33 1009.4
20260505170830 52 275 6.0 9.0 0.00 0.00 0.00 37 1009.3
20260505170329 52 300 5.0 11.0 0.00 0.00 0.00 36 1009.3
20260505165830 52 268 6.0 13.0 0.00 0.00 0.00 35 1009.2
20260505165351 51 290 5.0 13.0 0.00 0.00 0.00 35 1009.2
20260505164830 51 329 6.0 13.0 0.00 0.00 0.00 36 1009.2
20260505164331 51 298 7.0 12.0 0.00 0.00 0.00 34 1009.2
20260505163839 51 269 6.0 11.0 0.00 0.00 0.00 34 1009.2
20260505163328 52 277 5.0 11.0 0.00 0.00 0.00 36 1009.2
20260505162849 53 290 6.0 13.0 0.00 0.00 0.00 35 1009.1
20260505162329 53 306 6.0 16.0 0.00 0.00 0.00 35 1009.1
20260505161850 53 291 10.0 16.0 0.00 0.00 0.00 34 1009.1
20260505161329 53 309 6.0 14.0 0.00 0.00 0.00 35 1009.1
20260505160830 53 309 7.0 18.0 0.00 0.00 0.00 33 1009.0
20260505160330 53 280 8.0 18.0 0.00 0.00 0.00 34 1009.0
20260505153329 54 278 7.0 13.0 0.00 0.00 0.00 35 1009.0
20260505152829 54 272 5.0 11.0 0.00 0.00 0.00 36 1009.0
20260505152331 54 305 4.0 14.0 0.00 0.00 0.00 37 1009.0
20260505151839 54 278 5.0 14.0 0.00 0.00 0.00 37 1009.0
20260505151328 54 283 8.0 13.0 0.00 0.00 0.00 36 1008.9
20260505150830 54 299 7.0 17.0 0.00 0.00 0.00 35 1008.9
20260505150329 54 279 9.0 17.0 0.00 0.00 0.00 36 1008.9
20260505140325 56 299 6.0 15.0 0.00 0.00 0.00 35 1008.9
20260505124850 53 298 9.0 15.0 0.00 0.00 0.00 39 1008.8
20260505124350 53 288 6.0 16.0 0.00 0.00 0.00 39 1008.8
20260505123831 53 306 7.0 16.0 0.00 0.00 0.00 38 1008.8
20260505123331 53 286 8.0 13.0 0.00 0.00 0.00 42 1008.8
20260505122831 53 285 5.0 16.0 0.00 0.00 0.00 41 1008.8
20260505122339 54 261 9.0 17.0 0.00 0.00 0.00 35 1008.8
20260505121828 56 308 9.0 17.0 0.00 0.00 0.00 36 1008.7
20260505121329 56 118 5.0 19.0 0.00 0.00 0.00 39 1008.6
20260505120829 56 308 8.0 15.0 0.00 0.00 0.00 37 1008.6
20260505120330 56 295 9.0 16.0 0.00 0.00 0.00 37 1008.5
20260505115839 55 276 5.0 16.0 0.00 0.00 0.00 36 1008.4
20260505115328 55 317 10.0 14.0 0.00 0.00 0.00 34 1008.5
20260505114829 56 278 9.0 19.0 0.00 0.00 0.00 36 1008.4
20260505114330 56 314 10.0 19.0 0.00 0.00 0.00 35 1008.4
20260505113831 55 295 3.0 16.0 0.00 0.00 0.00 35 1008.4
20260505113332 54 304 8.0 16.0 0.00 0.00 0.00 32 1008.5
20260505112831 54 319 10.0 15.0 0.00 0.00 0.00 37 1008.5
20260505112340 54 290 6.0 14.0 0.00 0.00 0.00 38 1008.5
20260505111829 53 316 9.0 17.0 0.00 0.00 0.00 35 1008.5
20260505111329 54 283 8.0 17.0 0.00 0.00 0.00 37 1008.5
20260505110830 55 246 6.0 17.0 0.00 0.00 0.00 36 1008.4
20260505110329 55 283 7.0 17.0 0.00 0.00 0.00 36 1008.4
20260505101831 53 284 5.0 13.0 0.00 0.00 0.00 39 1008.2
20260505101331 53 291 7.0 14.0 0.00 0.00 0.00 37 1008.2
20260505100851 54 306 8.0 14.0 0.00 0.00 0.00 36 1008.1
20260505100332 53 315 8.0 16.0 0.00 0.00 0.00 40 1008.1
20260505095851 53 277 7.0 14.0 0.00 0.00 0.00 40 1008.1
20260505095331 52 259 7.0 13.0 0.00 0.00 0.00 43 1008.1
20260505094830 52 299 7.0 14.0 0.00 0.00 0.00 44 1008.1
20260505094327 53 301 10.0 15.0 0.00 0.00 0.00 43 1008.0
20260505093826 53 311 5.0 17.0 0.00 0.00 0.00 45 1008.0
20260505093328 53 300 10.0 17.0 0.00 0.00 0.00 43 1008.1
20260505092826 52 342 7.0 14.0 0.00 0.00 0.00 46 1008.0
20260505092327 52 298 10.0 19.0 0.00 0.00 0.00 46 1007.9
20260505091825 52 283 9.0 19.0 0.00 0.00 0.00 47 1008.0
20260505091345 53 307 7.0 14.0 0.00 0.00 0.00 48 1008.0
20260505090824 52 286 6.0 14.0 0.00 0.00 0.00 51 1008.0
20260505090325 52 287 8.0 17.0 0.00 0.00 0.00 51 1007.9
20260505085831 52 326 9.0 17.0 0.00 0.00 0.00 49 1007.9
20260505085341 53 283 8.0 16.0 0.00 0.00 0.00 50 1007.9
20260505084828 52 320 10.0 14.0 0.00 0.00 0.00 52 1007.7
20260505084336 51 286 3.0 9.0 0.00 0.00 0.00 57 1007.8
20260505083824 49 292 3.0 11.0 0.00 0.00 0.00 53 1007.8
20260505083326 50 288 6.0 12.0 0.00 0.00 0.00 52 1007.8
20260505082826 52 304 6.0 13.0 0.00 0.00 0.00 52 1007.7
20260505082326 52 284 7.0 12.0 0.00 0.00 0.00 55 1007.7
20260505081834 51 312 8.0 12.0 0.00 0.00 0.00 54 1007.7
20260505081341 50 315 6.0 11.0 0.00 0.00 0.00 59 1007.7
20260505080826 49 240 7.0 10.0 0.00 0.00 0.00 60 1007.7
20260505080336 48 298 5.0 12.0 0.00 0.00 0.00 60 1007.6
20260505075824 49 311 9.0 12.0 0.00 0.00 0.00 59 1007.5
20260505075325 50 323 7.0 10.0 0.00 0.00 0.00 60 1007.5
20260505074826 49 331 5.0 12.0 0.00 0.00 0.00 61 1007.5
20260505074346 49 322 7.0 12.0 0.00 0.00 0.00 61 1007.4
20260505073846 49 324 4.0 11.0 0.00 0.00 0.00 62 1007.4
20260505073325 49 319 7.0 11.0 0.00 0.00 0.00 62 1007.4
20260505072826 48 323 5.0 10.0 0.00 0.00 0.00 63 1007.4
20260505072327 48 321 6.0 10.0 0.00 0.00 0.00 63 1007.3
20260505071827 47 275 5.0 11.0 0.00 0.00 0.00 64 1007.4
20260505071328 47 303 7.0 11.0 0.00 0.00 0.00 65 1007.3
20260505070836 48 277 5.0 9.0 0.00 0.00 0.00 65 1007.3
20260505070325 47 296 2.0 11.0 0.00 0.00 0.00 66 1007.2
20260505065825 47 284 7.0 11.0 0.00 0.00 0.00 66 1007.1
20260505065332 47 302 8.0 11.0 0.00 0.00 0.00 66 1007.0
20260505064842 47 288 5.0 11.0 0.00 0.00 0.00 66 1007.0
20260505064349 47 294 5.0 11.0 0.00 0.00 0.00 68 1007.0
20260505063857 46 317 5.0 13.0 0.00 0.00 0.00 68 1006.9
20260505063325 46 287 8.0 13.0 0.00 0.00 0.00 67 1006.9
20260505062826 46 333 5.0 11.0 0.00 0.00 0.00 70 1006.9
20260505062326 46 304 6.0 11.0 0.00 0.00 0.00 68 1006.7
20260505061826 45 281 5.0 11.0 0.00 0.00 0.00 68 1006.8
20260505061328 45 299 5.0 10.0 0.00 0.04 0.00 69 1006.8
20260505060828 45 318 5.0 10.0 0.00 0.04 0.00 69 1006.7
20260505060349 45 282 4.0 10.0 0.00 0.04 0.00 69 1006.7
20260505055829 44 284 5.0 10.0 0.00 0.04 0.00 69 1006.7
20260505055328 44 249 6.0 10.0 0.00 0.04 0.00 68 1006.7
20260505054828 44 277 5.0 9.0 0.00 0.04 0.00 68 1006.7
20260505054326 44 300 5.0 13.0 0.00 0.04 0.00 69 1006.6
20260505053829 44 263 6.0 13.0 0.00 0.04 0.00 69 1006.6
20260505053329 44 277 5.0 11.0 0.00 0.04 0.00 70 1006.6
20260505052829 43 294 4.0 11.0 0.00 0.04 0.00 70 1006.6
20260505052336 43 287 4.0 10.0 0.00 0.04 0.00 71 1006.6
20260505051826 43 277 6.0 10.0 0.00 0.04 0.00 69 1006.5
20260505051325 43 296 4.0 11.0 0.00 0.12 0.00 69 1006.5
20260505050825 43 276 7.0 11.0 0.00 0.12 0.00 70 1006.4
20260505050325 43 296 5.0 11.0 0.00 0.12 0.00 70 1006.4
20260505041328 42 282 4.0 10.0 0.00 0.28 0.00 72 1006.0
20260505040836 41 281 5.0 10.0 0.00 0.28 0.00 73 1006.1
20260505040324 41 289 3.0 9.0 0.00 0.28 0.00 74 1006.1
20260505035831 41 267 5.0 9.0 0.00 0.28 0.00 74 1006.1
20260505035352 41 290 3.0 5.0 0.00 0.28 0.00 75 1006.0
20260505034838 41 304 3.0 7.0 0.00 0.28 0.00 75 1006.0
20260505034346 41 295 3.0 7.0 0.00 0.28 0.00 75 1005.9
20260505033832 41 285 3.0 8.0 0.00 0.28 0.00 75 1005.9
20260505033332 41 304 3.0 8.0 0.00 0.28 0.00 74 1006.0
20260505032838 41 285 4.0 6.0 0.00 0.28 0.00 74 1005.9
20260505032325 42 294 3.0 6.0 0.00 0.28 0.00 74 1005.9
20260505031831 42 283 2.0 9.0 0.00 0.28 0.00 74 1005.9
20260505031338 42 292 4.0 10.0 0.00 0.35 0.00 74 1005.9
20260505030825 42 292 4.0 10.0 0.00 0.35 0.00 74 1005.9
20260505030332 42 304 5.0 12.0 0.00 0.35 0.00 74 1005.8
20260505025837 42 254 5.0 13.0 0.00 0.35 0.00 75 1005.7
20260505025325 42 307 5.0 13.0 0.00 0.35 0.00 75 1005.6
20260505024831 43 290 4.0 9.0 0.00 0.35 0.00 75 1005.6
20260505024331 43 304 6.0 10.0 0.00 0.35 0.00 75 1005.5
20260505023832 43 319 4.0 11.0 0.00 0.35 0.00 75 1005.5
20260505023331 43 301 5.0 12.0 0.00 0.35 0.00 75 1005.5
20260505022831 44 310 5.0 13.0 0.00 0.35 0.00 76 1005.4
20260505022331 44 300 4.0 13.0 0.00 0.35 0.00 76 1005.3
20260505021831 44 271 6.0 11.0 0.00 0.35 0.00 76 1005.3
20260505021350 44 279 4.0 10.0 0.00 0.35 0.00 77 1005.3
20260505020850 44 299 4.0 9.0 0.00 0.35 0.00 77 1005.2
20260505020329 44 297 4.0 12.0 0.00 0.35 0.00 77 1005.2
20260505015829 45 294 6.0 12.0 0.00 0.35 0.00 77 1005.0
20260505015337 45 294 4.0 10.0 0.00 0.35 0.00 78 1005.1
20260505014825 45 286 4.0 11.0 0.00 0.35 0.00 78 1005.0
20260505014331 45 283 5.0 12.0 0.00 0.35 0.00 78 1004.9
20260505013839 45 288 7.0 12.0 0.00 0.35 0.00 78 1004.9
20260505013328 46 294 5.0 12.0 0.00 0.35 0.00 79 1004.8
20260505012829 46 292 5.0 12.0 0.00 0.35 0.00 79 1004.9
20260505012349 46 281 6.0 11.0 0.00 0.35 0.00 79 1004.7
20260505011836 46 308 6.0 11.0 0.00 0.35 0.00 79 1004.7
20260505011325 46 276 6.0 11.0 0.00 0.35 0.00 80 1004.7
20260505010832 46 290 5.0 10.0 0.00 0.35 0.00 80 1004.6
20260505010340 46 288 4.0 12.0 0.00 0.35 0.00 79 1004.7
20260505005828 47 276 4.0 10.0 0.00 0.35 0.00 79 1004.5
20260505005336 47 284 5.0 9.0 0.00 0.35 0.00 79 1004.5
20260505004824 47 269 3.0 11.0 0.00 0.35 0.00 79 1004.4
20260505004351 47 281 5.0 11.0 0.00 0.35 0.00 78 1004.4
20260505003828 47 281 5.0 11.0 0.00 0.35 0.00 78 1004.4
20260505003328 47 283 4.0 10.0 0.00 0.35 0.00 78 1004.3
20260505002829 47 271 4.0 16.0 0.00 0.35 0.00 78 1004.3
20260505002329 48 269 6.0 16.0 0.00 0.35 0.00 77 1004.3
20260505001830 48 281 4.0 12.0 0.00 0.35 0.00 77 1004.2
20260505001331 48 286 3.0 19.0 0.00 0.35 0.00 77 1004.2
20260505000839 48 275 6.0 19.0 0.00 0.35 0.00 77 1004.1
20260505000328 48 294 3.0 11.0 0.00 0.35 0.00 76 1004.1
20260504235828 48 309 4.0 11.0 0.00 0.35 0.00 76 1004.1
20260504235328 48 296 3.0 10.0 0.00 0.35 0.00 76 1004.1
20260504234837 48 279 5.0 12.0 0.00 0.35 0.00 75 1004.1
20260504234325 48 286 6.0 15.0 0.00 0.35 0.00 75 1004.0
20260504233854 49 254 3.0 15.0 0.00 0.35 0.00 74 1004.0
20260504233339 49 292 4.0 14.0 0.00 0.35 0.00 74 1004.0
20260504232828 49 292 2.0 13.0 0.00 0.35 0.00 73 1004.0
20260504232328 49 264 4.0 14.0 0.00 0.35 0.00 73 1004.0
20260504231829 49 346 5.0 15.0 0.00 0.35 0.00 72 1004.1
20260504231331 49 299 3.0 15.0 0.00 0.35 0.00 71 1004.1
20260504230851 49 95 3.0 11.0 0.00 0.35 0.00 70 1003.9
20260504230331 49 265 4.0 11.0 0.00 0.35 0.00 70 1003.9
20260504225830 49 264 4.0 12.0 0.00 0.35 0.00 69 1003.8
20260504225339 49 275 4.0 10.0 0.00 0.35 0.00 69 1003.9
20260504224828 49 305 4.0 10.0 0.00 0.35 0.00 67 1003.9
20260504224337 49 284 3.0 7.0 0.00 0.35 0.00 67 1003.9
20260504223824 49 329 2.0 9.0 0.00 0.35 0.00 66 1003.9
20260504223333 49 298 3.0 12.0 0.00 0.35 0.00 65 1003.9
20260504222900 49 248 3.0 12.0 0.00 0.35 0.00 64 1003.9
20260504222328 49 244 5.0 12.0 0.00 0.35 0.00 64 1004.0
20260504221828 49 263 3.0 10.0 0.00 0.35 0.00 63 1003.9
20260504221328 49 295 4.0 10.0 0.00 0.35 0.07 62 1003.9
20260504220835 49 256 3.0 9.0 0.00 0.35 0.07 63 1003.9
20260504220402 49 287 3.0 9.0 0.00 0.35 0.07 61 1003.9
20260504215828 50 329 2.0 5.0 0.00 0.35 0.07 60 1003.9
20260504215326 50 344 2.0 8.0 0.00 0.35 0.07 59 1003.9
20260504214827 50 342 2.0 8.0 0.00 0.35 0.07 59 1003.9